Grosse Ile, MI

6:26 AM EDT on May 23, 2017 (GMT -0400)
Grosse Ile Municipal

Weather History for KONZ - July, 2013

Change the Weather History Date:

Monday, July 1, 2013

  Actual Average (KDTW) Record (KDTW)
Temperature  
Mean Temperature 64 °F -  
Max Temperature 68 °F 80 °F 98 °F (1931)
Min Temperature 60 °F 60 °F 47 °F (1965)
Degree Days  
Heating Degree Days 1    
Growing Degree Days 14 (Base 50)    
Moisture  
Dew Point 56 °F    
Average Humidity 76    
Maximum Humidity 94    
Minimum Humidity 56    
Precipitation  
Precipitation 2.27 in - - ()
Sea Level Pressure  
Sea Level Pressure 29.98 in    
Wind  
Wind Speed 10 mph (NNE)    
Max Wind Speed 24 mph    
Max Gust Speed 29 mph    
Visibility 10 miles    
Events Rain    
Averages and records for this station are not official NWS values.
T = Trace of Precipitation, MM = Missing Value Source: NWS Daily Summary

Daily Weather History Graph

Daily Weather History Graph

Search for Another Location

Airport or City:

Trip Planner

Search our weather history database for the weather conditions in past years. The results will help you decide how hot, cold, wet, or windy it might be!

Date:

Astronomy

Jul. 01, 2013 Rise Set
Actual Time 6:00 AM EDT 9:12 PM EDT
Civil Twilight 5:26 AM EDT 9:46 PM EDT
Nautical Twilight 4:42 AM EDT 10:30 PM EDT
Astronomical Twilight 3:48 AM EDT 11:23 PM EDT
Moon 1:34 AM EDT (7/1) 3:23 PM EDT (7/1)
Length of Visible Light 16h 20m
Length of Day
15h 11m
Waning Crescent, 35% of the Moon is Illuminated
Jul 1
Waning Crescent
Jul 8
New
Jul 15
First Quarter
Jul 22
Full
Jul 29
Last Quarter

Hourly Weather History & Observations

Time (EDT) Temp. Dew Point Humidity Pressure Visibility Wind Dir Wind Speed Gust Speed Precip Events Conditions
12:14 AM 66.2 °F 50.0 °F 56% 29.93 in 10.0 mi NNE 10.4 mph - N/A   Clear
12:34 AM 66.2 °F 51.8 °F 60% 29.93 in 10.0 mi NNE 6.9 mph - N/A   Clear
12:54 AM 66.2 °F 50.0 °F 56% 29.93 in 10.0 mi North 9.2 mph - N/A   Scattered Clouds
1:14 AM 64.4 °F 50.0 °F 59% 29.93 in 10.0 mi North 10.4 mph - N/A   Scattered Clouds
1:35 AM 64.4 °F 51.8 °F 64% 29.93 in 10.0 mi North 10.4 mph - N/A   Clear
1:54 AM 64.4 °F 51.8 °F 64% 29.93 in 10.0 mi North 9.2 mph - N/A   Clear
2:14 AM 64.4 °F 51.8 °F 64% 29.92 in 10.0 mi North 10.4 mph - N/A   Clear
2:34 AM 64.4 °F 53.6 °F 68% 29.92 in 10.0 mi North 9.2 mph - N/A   Clear
2:54 AM 64.4 °F 53.6 °F 68% 29.92 in 10.0 mi NNE 8.1 mph - N/A   Clear
3:14 AM 64.4 °F 53.6 °F 68% 29.92 in 10.0 mi North 9.2 mph - N/A   Scattered Clouds
3:34 AM 64.4 °F 53.6 °F 68% 29.92 in 10.0 mi North 9.2 mph - N/A   Scattered Clouds
3:54 AM 64.4 °F 55.4 °F 73% 29.92 in 10.0 mi North 10.4 mph - N/A   Clear
4:14 AM 64.4 °F 55.4 °F 73% 29.92 in 10.0 mi North 8.1 mph - N/A   Clear
4:34 AM 64.4 °F 55.4 °F 73% 29.92 in 10.0 mi North 8.1 mph - N/A   Clear
4:54 AM 64.4 °F 55.4 °F 73% 29.93 in 10.0 mi North 9.2 mph - N/A   Clear
5:14 AM 64.4 °F 55.4 °F 73% 29.93 in 10.0 mi North 9.2 mph - N/A   Clear
5:34 AM 64.4 °F 55.4 °F 73% 29.94 in 10.0 mi North 10.4 mph - N/A   Clear
5:54 AM 64.4 °F 55.4 °F 73% 29.94 in 10.0 mi North 11.5 mph 16.1 mph N/A   Clear
6:15 AM 64.4 °F 55.4 °F 73% 29.94 in 10.0 mi North 11.5 mph 17.3 mph N/A   Clear
6:34 AM 64.4 °F 55.4 °F 73% 29.94 in 10.0 mi North 11.5 mph - N/A   Clear
6:54 AM 64.4 °F 55.4 °F 73% 29.95 in 10.0 mi NNE 9.2 mph - N/A   Clear
7:15 AM 64.4 °F 55.4 °F 73% 29.95 in 10.0 mi NNE 9.2 mph - N/A   Clear
7:34 AM 64.4 °F 55.4 °F 73% 29.95 in 10.0 mi NNE 10.4 mph - N/A   Clear
7:54 AM 64.4 °F 55.4 °F 73% 29.95 in 10.0 mi North 10.4 mph - N/A   Clear
8:14 AM 64.4 °F 55.4 °F 73% 29.95 in 10.0 mi North 10.4 mph - N/A   Clear
8:34 AM 64.4 °F 55.4 °F 73% 29.95 in 10.0 mi North 8.1 mph - N/A   Clear
8:55 AM 66.2 °F 57.2 °F 73% 29.96 in 10.0 mi NNE 8.1 mph - N/A   Clear
9:14 AM 66.2 °F 55.4 °F 68% 29.96 in 10.0 mi NNE 8.1 mph - N/A   Scattered Clouds
9:34 AM 66.2 °F 57.2 °F 73% 29.97 in 10.0 mi NNE 8.1 mph - N/A   Scattered Clouds
9:54 AM 66.2 °F 57.2 °F 73% 29.97 in 10.0 mi NNE 6.9 mph - N/A   Scattered Clouds
10:14 AM 66.2 °F 57.2 °F 73% 29.96 in 10.0 mi NNE 11.5 mph 16.1 mph N/A   Mostly Cloudy
10:34 AM 68.0 °F 57.2 °F 68% 29.96 in 10.0 mi NNE 11.5 mph 16.1 mph N/A   Mostly Cloudy
10:54 AM 68.0 °F 57.2 °F 68% 29.97 in 10.0 mi NNE 6.9 mph - N/A   Overcast
11:14 AM 68.0 °F 57.2 °F 68% 29.97 in 10.0 mi NNE 8.1 mph - N/A   Overcast
11:34 AM 68.0 °F 57.2 °F 68% 29.97 in 10.0 mi NNE 11.5 mph - N/A   Overcast
11:54 AM 68.0 °F 57.2 °F 68% 29.98 in 10.0 mi NNE 10.4 mph 17.3 mph N/A   Overcast
12:14 PM 68.0 °F 59.0 °F 73% 29.99 in 10.0 mi North 10.4 mph 17.3 mph N/A   Overcast
12:34 PM 66.2 °F 59.0 °F 78% 30.00 in 10.0 mi North 9.2 mph - N/A Rain Light Rain
12:54 PM 66.2 °F 60.8 °F 83% 30.00 in 5.0 mi NNE 8.1 mph - N/A Rain Rain
1:14 PM 66.2 °F 60.8 °F 83% 30.02 in 7.0 mi NNE 4.6 mph - 0.02 in Rain Rain
1:34 PM 64.4 °F 60.8 °F 88% 30.02 in 10.0 mi NNE 5.8 mph - 0.14 in Rain Heavy Rain
1:54 PM 64.4 °F 60.8 °F 88% 30.02 in 10.0 mi North 10.4 mph - 0.29 in Rain Heavy Rain
2:14 PM 62.6 °F 60.8 °F 94% 30.02 in 7.0 mi North 11.5 mph - 0.16 in Rain Heavy Rain
2:35 PM 62.6 °F 59.0 °F 88% 30.02 in 10.0 mi NNW 10.4 mph - 0.26 in Rain Rain
2:54 PM 62.6 °F 59.0 °F 88% 30.02 in 10.0 mi North 8.1 mph - 0.33 in Rain Heavy Rain
3:14 PM 62.6 °F 59.0 °F 88% 30.03 in 10.0 mi North 5.8 mph - 0.04 in Rain Rain
3:35 PM 62.6 °F 59.0 °F 88% 30.02 in 7.0 mi NNW 8.1 mph - 0.20 in Rain Heavy Rain
3:54 PM 62.6 °F 57.2 °F 82% 30.03 in 10.0 mi North 3.5 mph - 0.32 in Rain Heavy Rain
4:14 PM 62.6 °F 57.2 °F 82% 30.03 in 10.0 mi North 5.8 mph - 0.13 in Rain Heavy Rain
4:34 PM 62.6 °F 57.2 °F 82% 30.03 in 10.0 mi NNE 6.9 mph - 0.22 in Rain Heavy Rain
4:54 PM 62.6 °F 57.2 °F 82% 30.02 in 10.0 mi NNE 5.8 mph - 0.28 in Rain Heavy Rain
5:14 PM 62.6 °F 57.2 °F 82% 30.02 in 10.0 mi NNE 10.4 mph - 0.06 in Rain Rain
5:34 PM 62.6 °F 57.2 °F 82% 30.02 in 10.0 mi North 9.2 mph - 0.13 in Rain Heavy Rain
5:54 PM 62.6 °F 57.2 °F 82% 30.03 in 10.0 mi NNE 10.4 mph - 0.18 in Rain Rain
6:14 PM 62.6 °F 57.2 °F 82% 30.02 in 5.0 mi NNE 13.8 mph 17.3 mph 0.12 in Rain Heavy Rain
6:34 PM 60.8 °F 57.2 °F 88% 30.02 in 5.0 mi NNE 16.1 mph - 0.29 in Rain Heavy Rain
6:54 PM 60.8 °F 57.2 °F 88% 30.02 in 1.2 mi NNE 24.2 mph 27.6 mph 0.70 in Rain Heavy Rain
7:14 PM - - N/A% 30.01 in - NNE 24.2 mph - 0.12 in   Unknown
7:34 PM 62.6 °F 57.2 °F 82% 30.02 in 10.0 mi North 18.4 mph 28.8 mph 0.16 in Rain Light Rain
7:54 PM 62.6 °F 57.2 °F 82% 30.02 in 10.0 mi North 16.1 mph 23.0 mph 0.17 in   Overcast
8:14 PM 62.6 °F 57.2 °F 82% 30.03 in 10.0 mi North 12.7 mph 18.4 mph N/A   Overcast
8:34 PM 62.6 °F 57.2 °F 82% 30.03 in 10.0 mi North 12.7 mph 18.4 mph N/A   Overcast
8:55 PM 62.6 °F 57.2 °F 82% 30.03 in 10.0 mi North 10.4 mph - N/A   Overcast
9:14 PM 62.6 °F 57.2 °F 82% 30.03 in 10.0 mi North 10.4 mph - N/A   Overcast
9:34 PM 62.6 °F 57.2 °F 82% 30.02 in 10.0 mi North 15.0 mph - N/A   Overcast
9:55 PM 64.4 °F 57.2 °F 77% 30.03 in 10.0 mi North 10.4 mph - N/A   Overcast
10:14 PM 64.4 °F 59.0 °F 83% 30.03 in 10.0 mi North 12.7 mph - N/A   Overcast
10:34 PM 64.4 °F 59.0 °F 83% 30.03 in 10.0 mi North 10.4 mph - N/A   Overcast
10:54 PM 64.4 °F 59.0 °F 83% 30.03 in 10.0 mi North 6.9 mph - N/A   Overcast
11:14 PM 64.4 °F 57.2 °F 77% 30.04 in 10.0 mi North 6.9 mph - N/A   Overcast
11:34 PM 64.4 °F 57.2 °F 77% 30.03 in 10.0 mi NNE 9.2 mph - N/A   Overcast
11:54 PM 64.4 °F 57.2 °F 77% 30.01 in 10.0 mi NNE 10.4 mph - N/A   Mostly Cloudy